• In Uzbekistan
  • List of Countries
  • For 7 days
  • Water Temperature
  • Satellite Maps
  • Weather Map
  • Weather Widgets
  • user-avatar
    Login

    Hourly Weather Chios

    Today, 17 December, Monday

    Time Temperature Precipitation Wind Pressure Humidity
    00:00 +13°C° 0.5 mm 3 mps 754 mmHg 89%
    01:00 +13°C° 0.5 mm 3 mps 754 mmHg 89%
    02:00 +13°C° 0.5 mm 4 mps 754 mmHg 88%
    03:00 +13°C° 0.3 mm 4 mps 755 mmHg 90%
    04:00 +13°C° 0.3 mm 4 mps 755 mmHg 91%
    05:00 +12°C° 0.3 mm 4 mps 755 mmHg 92%
    06:00 +12°C° 0 mm 5 mps 755 mmHg 91%
    07:00 +12°C° 0 mm 5 mps 755 mmHg 90%
    08:00 +12°C° 0 mm 5 mps 756 mmHg 89%
    09:00 +12°C° 0 mm 5 mps 756 mmHg 84%
    10:00 +12°C° 0 mm 4 mps 756 mmHg 80%
    11:00 +13°C° 0 mm 4 mps 756 mmHg 76%
    12:00 +13°C° 0 mm 4 mps 756 mmHg 74%
    13:00 +13°C° 0 mm 4 mps 756 mmHg 71%
    14:00 +13°C° 0 mm 4 mps 756 mmHg 69%
    15:00 +12°C° 0 mm 3 mps 756 mmHg 70%
    16:00 +12°C° 0 mm 3 mps 756 mmHg 71%
    17:00 +12°C° 0 mm 3 mps 756 mmHg 72%
    18:00 +12°C° 0 mm 2 mps 756 mmHg 72%
    19:00 +12°C° 0 mm 2 mps 756 mmHg 73%
    20:00 +12°C° 0 mm 1 mps 757 mmHg 74%
    21:00 +12°C° 0 mm 1 mps 757 mmHg 73%
    22:00 +12°C° 0 mm 2 mps 757 mmHg 73%
    23:00 +12°C° 0 mm 2 mps 757 mmHg 72%

    Tomorrow, 18 December, Tuesday

    Time Temperature Precipitation Wind Pressure Humidity
    00:00 +12°C° 0 mm 2 mps 757 mmHg 73%
    01:00 +11°C° 0 mm 3 mps 756 mmHg 74%
    02:00 +11°C° 0 mm 3 mps 756 mmHg 74%
    03:00 +11°C° 0.4 mm 4 mps 756 mmHg 76%
    04:00 +11°C° 0.4 mm 4 mps 755 mmHg 78%
    05:00 +11°C° 0.4 mm 4 mps 754 mmHg 80%
    06:00 +9°C° 1 mm 5 mps 754 mmHg 83%
    07:00 +9°C° 1 mm 5 mps 754 mmHg 86%
    08:00 +9°C° 1 mm 6 mps 754 mmHg 88%
    09:00 +9°C° 1 mm 6 mps 754 mmHg 87%
    10:00 +9°C° 1 mm 6 mps 754 mmHg 87%
    11:00 +9°C° 1 mm 7 mps 754 mmHg 86%
    12:00 +9°C° 0.9 mm 6 mps 754 mmHg 88%
    13:00 +9°C° 0.9 mm 6 mps 753 mmHg 90%
    14:00 +9°C° 0.9 mm 6 mps 753 mmHg 91%
    15:00 +10°C° 0.9 mm 6 mps 753 mmHg 91%
    16:00 +10°C° 0.9 mm 6 mps 753 mmHg 90%
    17:00 +10°C° 0.9 mm 5 mps 753 mmHg 90%
    18:00 +10°C° 0.4 mm 6 mps 753 mmHg 90%
    19:00 +10°C° 0.4 mm 6 mps 754 mmHg 90%
    20:00 +10°C° 0.4 mm 7 mps 754 mmHg 90%
    21:00 +10°C° 0.2 mm 7 mps 754 mmHg 90%
    22:00 +10°C° 0.2 mm 8 mps 755 mmHg 90%
    23:00 +10°C° 0.2 mm 9 mps 755 mmHg 90%

    Day after tomorrow, 19 December, Wednesday

    Time Temperature Precipitation Wind Pressure Humidity
    00:00 +10°C° 0.2 mm 9 mps 755 mmHg 88%
    01:00 +9°C° 0.2 mm 10 mps 756 mmHg 87%
    02:00 +8°C° 0.2 mm 11 mps 756 mmHg 85%
    03:00 +8°C° 0.2 mm 11 mps 756 mmHg 85%
    04:00 +8°C° 0.2 mm 11 mps 757 mmHg 84%
    05:00 +7°C° 0.2 mm 11 mps 757 mmHg 84%
    06:00 +7°C° 0 mm 10 mps 758 mmHg 83%
    07:00 +7°C° 0 mm 10 mps 758 mmHg 83%
    08:00 +7°C° 0 mm 9 mps 759 mmHg 82%
    09:00 +7°C° 0 mm 9 mps 760 mmHg 80%
    10:00 +7°C° 0 mm 9 mps 760 mmHg 79%
    11:00 +7°C° 0 mm 8 mps 761 mmHg 77%
    12:00 +9°C° 0 mm 8 mps 761 mmHg 76%
    13:00 +9°C° 0 mm 8 mps 761 mmHg 74%
    14:00 +9°C° 0 mm 8 mps 761 mmHg 73%
    15:00 +9°C° 0 mm 7 mps 761 mmHg 74%
    16:00 +8°C° 0 mm 7 mps 761 mmHg 75%
    17:00 +8°C° 0 mm 7 mps 761 mmHg 76%
    18:00 +8°C° 0 mm 7 mps 762 mmHg 76%
    19:00 +8°C° 0 mm 6 mps 762 mmHg 75%
    20:00 +8°C° 0 mm 6 mps 763 mmHg 75%
    21:00 +8°C° 0 mm 6 mps 763 mmHg 75%
    22:00 +7°C° 0 mm 6 mps 763 mmHg 75%
    23:00 +7°C° 0 mm 6 mps 763 mmHg 75%

    20 December, Thursday

    Time Temperature Precipitation Wind Pressure Humidity
    00:00 +7°C° 0 mm 6 mps 763 mmHg 75%
    01:00 +7°C° 0 mm 6 mps 763 mmHg 76%
    02:00 +7°C° 0 mm 6 mps 764 mmHg 76%
    03:00 +7°C° 0 mm 6 mps 764 mmHg 76%
    04:00 +6°C° 0 mm 5 mps 764 mmHg 76%
    05:00 +6°C° 0 mm 5 mps 764 mmHg 76%
    06:00 +6°C° 0 mm 5 mps 764 mmHg 77%
    07:00 +6°C° 0 mm 5 mps 764 mmHg 77%
    08:00 +6°C° 0 mm 5 mps 765 mmHg 78%
    09:00 +7°C° 0 mm 4 mps 765 mmHg 75%
    10:00 +7°C° 0 mm 4 mps 765 mmHg 73%
    11:00 +8°C° 0 mm 4 mps 765 mmHg 70%
    12:00 +8°C° 0 mm 4 mps 765 mmHg 69%
    13:00 +8°C° 0 mm 4 mps 764 mmHg 68%
    14:00 +8°C° 0 mm 4 mps 764 mmHg 67%
    15:00 +9°C° 0 mm 3 mps 764 mmHg 67%
    16:00 +9°C° 0 mm 3 mps 764 mmHg 68%
    17:00 +9°C° 0 mm 3 mps 764 mmHg 68%
    18:00 +9°C° 0 mm 3 mps 764 mmHg 69%
    19:00 +8°C° 0 mm 2 mps 764 mmHg 69%
    20:00 +8°C° 0 mm 2 mps 764 mmHg 69%
    21:00 +8°C° 0 mm 2 mps 764 mmHg 70%
    22:00 +8°C° 0 mm 2 mps 765 mmHg 71%
    23:00 +8°C° 0 mm 2 mps 765 mmHg 72%

    21 December, Friday

    Time Temperature Precipitation Wind Pressure Humidity
    00:00 +8°C° 0 mm 2 mps 764 mmHg 73%
    01:00 +9°C° 0 mm 1 mps 764 mmHg 75%
    02:00 +8°C° 0 mm 1 mps 764 mmHg 77%
    03:00 +8°C° 0 mm 1 mps 764 mmHg 78%
    04:00 +8°C° 0 mm 1 mps 764 mmHg 80%
    05:00 +8°C° 0 mm 1 mps 763 mmHg 81%
    06:00 +8°C° 0 mm 1 mps 764 mmHg 81%
    07:00 +8°C° 0 mm 1 mps 764 mmHg 81%
    08:00 +8°C° 0 mm 1 mps 764 mmHg 80%
    09:00 +9°C° 0 mm 2 mps 764 mmHg 75%
    10:00 +10°C° 0 mm 2 mps 764 mmHg 69%
    11:00 +12°C° 0 mm 2 mps 764 mmHg 63%
    12:00 +12°C° 0 mm 2 mps 763 mmHg 62%
    13:00 +13°C° 0 mm 2 mps 763 mmHg 60%
    14:00 +13°C° 0 mm 2 mps 763 mmHg 59%
    15:00 +13°C° 0 mm 2 mps 762 mmHg 62%
    16:00 +12°C° 0 mm 3 mps 762 mmHg 65%
    17:00 +11°C° 0 mm 3 mps 762 mmHg 68%
    18:00 +11°C° 0.1 mm 3 mps 762 mmHg 69%
    19:00 +11°C° 0.1 mm 3 mps 762 mmHg 71%
    20:00 +12°C° 0.1 mm 3 mps 762 mmHg 73%
    21:00 +12°C° 0.4 mm 3 mps 761 mmHg 77%
    22:00 +12°C° 0.4 mm 4 mps 761 mmHg 80%
    23:00 +12°C° 0.4 mm 4 mps 761 mmHg 84%

    22 December, Saturday

    Time Temperature Precipitation Wind Pressure Humidity
    00:00 +12°C° 0.3 mm 3 mps 761 mmHg 85%
    01:00 +12°C° 0.3 mm 3 mps 761 mmHg 86%
    02:00 +12°C° 0.3 mm 3 mps 760 mmHg 86%
    03:00 +12°C° 0.2 mm 3 mps 760 mmHg 86%
    04:00 +11°C° 0.2 mm 4 mps 760 mmHg 86%
    05:00 +11°C° 0.2 mm 4 mps 760 mmHg 87%
    06:00 +11°C° 0 mm 4 mps 761 mmHg 86%
    07:00 +11°C° 0 mm 4 mps 761 mmHg 86%
    08:00 +11°C° 0 mm 4 mps 762 mmHg 86%
    09:00 +12°C° 0 mm 4 mps 762 mmHg 84%
    10:00 +12°C° 0 mm 4 mps 763 mmHg 82%
    11:00 +13°C° 0 mm 3 mps 763 mmHg 80%
    12:00 +13°C° 0 mm 4 mps 763 mmHg 78%
    13:00 +13°C° 0 mm 4 mps 763 mmHg 77%
    14:00 +13°C° 0 mm 4 mps 763 mmHg 75%
    15:00 +12°C° 0 mm 4 mps 763 mmHg 74%
    16:00 +12°C° 0 mm 4 mps 763 mmHg 73%
    17:00 +11°C° 0 mm 4 mps 763 mmHg 72%
    18:00 +11°C° 0 mm 4 mps 763 mmHg 71%
    19:00 +11°C° 0 mm 3 mps 764 mmHg 70%
    20:00 +11°C° 0 mm 3 mps 764 mmHg 69%
    21:00 +10°C° 0 mm 3 mps 764 mmHg 70%
    22:00 +10°C° 0 mm 3 mps 764 mmHg 71%
    23:00 +10°C° 0 mm 2 mps 764 mmHg 71%
    Show more